FW9486 Weather Reports


Display with metric or nautical units.
time (UTC)temp
F
wind
direction
speed
MPH
gust
MPH
rain 1hr
in
rain 24hr
in
rain mn
in
humidity
%
barometer
mb
20260504040043 61 0 0.0 2.0 0.00 0.00 0.00 43 1007.6
20260504034538 62 358 1.0 6.0 0.00 0.00 0.00 42 1007.5
20260504033039 62 13 0.0 4.0 0.00 0.00 0.00 40 1007.4
20260504031547 63 328 1.0 5.0 0.00 0.00 0.00 37 1007.2
20260504030043 64 0 0.0 6.0 0.00 0.00 0.00 34 1007.1
20260504024537 65 325 0.0 4.0 0.00 0.00 0.00 32 1007.1
20260504023037 65 84 1.0 5.0 0.00 0.00 0.00 31 1007.0
20260504021535 66 0 0.0 7.0 0.00 0.00 0.00 31 1007.0
20260504020040 67 0 1.0 4.0 0.00 0.00 0.00 30 1007.0
20260504014553 68 0 1.0 7.0 0.00 0.00 0.00 30 1007.1
20260504013041 69 19 2.0 7.0 0.00 0.00 0.00 27 1007.1
20260504011539 70 48 1.0 9.0 0.00 0.00 0.00 26 1007.3
20260504010036 72 20 1.0 7.0 0.00 0.00 0.00 25 1007.4
20260504004541 73 334 1.0 7.0 0.00 0.00 0.00 25 1007.5
20260504003042 73 88 1.0 5.0 0.00 0.00 0.00 24 1007.5
20260504001546 73 170 2.0 9.0 0.00 0.00 0.00 25 1007.6
20260504000043 74 359 2.0 6.0 0.00 0.00 0.00 22 1007.8
20260503234534 75 167 1.0 6.0 0.00 0.00 0.00 28 1007.8
20260503233040 75 0 1.0 5.0 0.00 0.00 0.00 24 1007.9
20260503231542 75 139 3.0 11.0 0.00 0.00 0.00 22 1008.0
20260503230038 74 0 1.0 6.0 0.00 0.00 0.00 23 1008.2
20260503224540 75 0 3.0 8.0 0.00 0.00 0.00 30 1008.3
20260503223039 76 201 2.0 7.0 0.00 0.00 0.00 22 1008.5
20260503221547 75 64 3.0 12.0 0.00 0.00 0.00 22 1008.7
20260503220037 75 157 2.0 11.0 0.00 0.00 0.00 22 1008.8
20260503214544 76 8 1.0 7.0 0.00 0.00 0.00 27 1009.0
20260503213040 75 251 3.0 8.0 0.00 0.00 0.00 21 1009.1
20260503211541 76 344 2.0 8.0 0.00 0.00 0.00 24 1009.4
20260503210048 75 0 1.0 7.0 0.00 0.00 0.00 19 1009.5
20260503204546 75 122 2.0 7.0 0.00 0.00 0.00 25 1009.9
20260503203039 75 173 2.0 6.0 0.00 0.00 0.00 22 1009.9
20260503201538 75 129 2.0 7.0 0.00 0.00 0.00 25 1010.0
20260503200044 75 359 1.0 7.0 0.00 0.00 0.00 26 1010.1
20260503194537 74 79 4.0 8.0 0.00 0.00 0.00 23 1010.4
20260503193047 74 352 2.0 9.0 0.00 0.00 0.00 25 1010.6
20260503191542 74 0 4.0 10.0 0.00 0.00 0.00 22 1010.7
20260503190046 74 268 2.0 7.0 0.00 0.00 0.00 24 1010.9
20260503184541 73 94 2.0 5.0 0.00 0.00 0.00 31 1011.2
20260503183036 70 101 1.0 6.0 0.00 0.00 0.00 39 1011.2
20260503181542 68 147 1.0 4.0 0.00 0.00 0.00 41 1011.3
20260503180044 66 158 1.0 3.0 0.00 0.00 0.00 44 1011.5
20260503174537 64 91 2.0 5.0 0.00 0.00 0.00 45 1011.7
20260503173103 63 102 1.0 5.0 0.00 0.00 0.00 49 1011.8
20260503171547 62 109 1.0 4.0 0.00 0.00 0.00 50 1011.9
20260503081549 45 0 0.0 1.0 0.00 0.00 0.00 66 1012.7
20260503071541 47 0 0.0 0.0 0.00 0.00 0.00 60 1012.7
20260503054539 52 20 0.0 3.0 0.00 0.00 0.00 52 1012.3
20260503053037 54 0 0.0 1.0 0.00 0.00 0.00 52 1012.2
20260503051537 54 0 0.0 2.0 0.00 0.00 0.00 50 1012.1
20260503050039 54 30 0.0 1.0 0.00 0.00 0.00 51 1012.0
20260503044541 55 0 0.0 1.0 0.00 0.00 0.00 48 1012.1
20260503043036 55 0 0.0 1.0 0.00 0.00 0.00 49 1012.0
20260503041539 57 40 0.0 2.0 0.00 0.00 0.00 45 1011.9